Location: Chakepay
(13.3931°S, 72.1925°W)
Time: 05:18:43
(UTC+00:00)

Cosmos 2333 Rocket - Pass Details

Date: 15 November 2019
Orbit: 837 x 865 km, 70.8° (Epoch: 14 December)

Event Time Altitude Azimuth Distance (km) Brightness Sun altitude
Rises 00:09:58 0° 175° (S) 3,398 5.6 -17.8°
Reaches altitude 10° 00:12:57 10° 161° (SSE) 2,460 4.7 -18.4°
Enters shadow 00:17:15 23° 111° (ESE) 1,726 3.4 -19.4°
